Location: Honnecourt
(50.0374°N, 3.1970°E)
Time: 01:41:16
(UTC+00:00)

Daily predictions for brighter satellites

Satellite Brightness Start Highest point End
(mag) Time Altitude Azimuth Time Altitude Azimuth Time Altitude Azimuth
GENESIS II 4.3 00:03:42 10° NW 00:07:30 73° NNE 00:07:30 73° NNE
Cosmos 2333 4.2 00:03:28 10° NW 00:09:14 65° WSW 00:10:14 55° SSW
Cosmos 2219 Rocket 2.1 00:04:04 10° NNW 00:09:48 87° WSW 00:11:12 53° SSE
Cosmos 1464 Rocket 4.1 00:08:47 46° SSE 00:10:36 67° E 00:16:46 10° NNE
Cosmos 836 Rocket 4.4 00:05:46 10° NNW 00:10:57 68° WSW 00:11:32 62° SSW
Lacrosse 4 Rocket 1.4 00:13:01 70° E 00:13:01 70° E 00:16:59 10° NE
Cosmos 1782 Rocket 3.5 00:12:54 70° ESE 00:12:59 70° E 00:17:19 10° NNE
Cosmos 2233 Rocket 4.5 00:10:46 36° SW 00:13:01 53° WNW 00:19:14 10° N
FALCON 9 DEB 4.0 00:15:49 49° NNE 00:15:49 49° NNE 00:18:57 10° ENE
Cosmos 2322 Rocket 3.9 00:13:33 10° WNW 00:17:20 18° W 00:17:43 18° WSW
Cosmos 1354 Rocket 4.3 00:16:38 50° SE 00:17:23 54° ESE 00:22:36 10° NNE
SL-4 R/B 3.9 00:22:19 16° E 00:22:19 16° E 00:23:06 10° E
Cosmos 968 Rocket 3.3 00:19:13 64° SSW 00:20:01 90° SE 00:25:11 10° NNE
Landsat 4 3.8 00:16:38 10° NNE 00:20:07 74° NNE 00:20:07 74° NNE
SL-16 R/B 4.3 00:16:13 10° NNW 00:20:52 25° NE 00:25:29 10° E
Cosmos 1908 Rocket 3.8 00:21:09 55° W 00:21:27 56° WNW 00:25:47 10° N
COSMOS 2428 2.6 00:22:11 10° NNW 00:27:55 73° WSW 00:29:11 54° S
SL-16 R/B 3.4 00:28:37 19° SE 00:32:54 46° ENE 00:38:50 10° N
Nadezhda 4 Rocket 4.0 00:26:43 10° N 00:33:04 82° E 00:35:18 43° SSE
Cosmos 2360 Rocket 3.5 00:28:44 10° NW 00:33:14 25° WSW 00:33:24 25° WSW
CENTAUR R/B 3.7 00:27:48 10° W 00:33:53 44° NNW 00:41:05 10° NE
CZ-2D R/B 3.6 00:31:25 10° NE 00:36:02 27° E 00:38:05 22° SE
Cosmos 2034 Rocket 4.0 00:35:41 45° S 00:37:42 75° E 00:44:01 10° NNE
USA 267 4.0 00:33:04 10° E 00:39:23 53° NNE 00:45:43 10° WNW
Cosmos 1072 Rocket 4.5 00:39:08 46° SSW 00:41:01 73° WNW 00:47:08 10° N
Cosmos 1743 4.2 00:41:15 26° WNW 00:41:25 26° WNW 00:44:46 10° NNW
GEOS 3 Rocket 3.9 00:36:33 10° NE 00:41:50 52° SE 00:42:46 46° SSE
Okean 2 Rocket 3.3 00:41:46 53° SE 00:42:18 57° E 00:46:44 10° NNE
Meteor 2-9 Rocket 4.2 00:41:29 52° SSW 00:42:53 77° WNW 00:48:36 10° N
ADEOS II 4.4 00:41:39 10° ENE 00:44:11 13° E 00:46:44 10° ESE
Cosmos 1092 Rocket 4.2 00:38:54 10° N 00:45:10 66° ENE 00:48:01 33° SSE
Cosmos 1544 4.2 00:45:29 35° WNW 00:45:29 35° WNW 00:48:39 10° N
Cosmos 1975 Rocket 3.4 00:41:08 10° NNW 00:45:29 50° W 00:45:36 50° W
Cosmos 1975 3.3 00:45:31 48° WNW 00:45:33 48° WNW 00:49:29 10° N
Cosmos 1980 3.8 00:41:16 10° NNW 00:46:59 74° ENE 00:49:51 30° SE
Cosmos 2297 Rocket 3.4 00:45:36 26° SE 00:47:07 30° ESE 00:51:58 10° NE
Cosmos 2219 4.1 00:45:50 30° SE 00:47:15 34° ESE 00:52:17 10° NE
Cosmos 2333 Rocket 2.6 00:42:05 10° NW 00:47:32 44° WSW 00:48:11 43° SW
PSLV R/B 4.0 00:43:04 10° N 00:47:38 60° WNW 00:48:26 52° WSW
COSMOS 2487 4.2 00:48:08 23° WNW 00:48:17 23° WNW 00:51:08 10° N
Helios 1B rocket 2.3 00:44:32 10° NNE 00:48:38 79° WNW 00:48:49 76° WSW
Sich 1 Rocket 3.4 00:48:43 72° SW 00:49:07 81° W 00:53:33 10° N
Meteor 1-29 3.2 00:49:06 10° NNE 00:52:12 65° NE 00:52:12 65° NE
Cosmos 44 Rocket 3.3 00:49:30 10° NW 00:54:27 66° SW 00:55:08 58° SSW
Cosmos 2237 Rocket 2.2 00:51:20 10° NNW 00:57:03 81° ENE 00:59:51 31° SE
Cosmos 1503 Rocket 4.2 00:56:39 46° SW 00:58:10 68° WNW 01:03:33 10° NNE
Cosmos 1300 Rocket 3.4 00:57:53 66° SSE 00:58:23 76° E 01:02:42 10° NNE
DELTA 2 DEB (DPAF) 4.3 01:00:27 47° SE 01:01:37 71° ENE 01:06:04 10° N
Okean 1 Rocket 4.4 01:01:02 26° ESE 01:02:17 31° E 01:06:09 10° NNE
CZ-4 R/B 4.4 00:59:40 10° N 01:04:27 50° WNW 01:05:48 39° WSW
CZ-4C R/B 3.8 01:04:18 40° E 01:04:52 45° ENE 01:08:15 10° N
Spot 1 3.8 01:06:48 65° SSE 01:07:24 90° S 01:11:32 10° NNW
Iridium 51 4.4 01:03:37 10° N 01:08:04 79° E 01:08:42 62° SSE
Cosmos 2151 Rocket 3.5 01:12:29 59° S 01:13:17 83° E 01:17:43 10° NNE
Meteor 1-12 Rocket 4.3 01:11:28 42° SSW 01:13:37 87° WNW 01:19:40 10° NNE
Timation 2 Rocket 3.9 01:14:34 41° SSW 01:16:53 79° ESE 01:22:57 10° NNE
Cosmos 1707 3.3 01:13:30 10° NNW 01:17:05 44° W 01:17:05 44° W
In-Cosmos 22 4.1 01:11:42 10° NNW 01:17:21 75° W 01:19:15 42° S
Meteor 1-15 Rocket 4.5 01:22:53 33° SSE 01:25:21 64° E 01:30:55 10° NNE
Cosmos 1805 4.1 01:24:26 35° SE 01:25:23 42° E 01:29:04 10° NNE
DNEPR-1 R/B 4.1 01:20:07 10° NW 01:26:15 82° NE 01:31:05 11° SE
ERBS 2.5 01:23:13 10° NW 01:26:31 66° NNE 01:29:47 10° ESE
SJ 16-02 3.1 01:25:10 19° SE 01:26:55 24° E 01:30:29 10° NE
Meteor 2-13 Rocket 4.4 01:25:29 10° NNW 01:31:32 68° W 01:34:10 35° SSW
Cosmos 1538 Rocket 3.9 01:28:54 10° NNW 01:34:02 65° WSW 01:35:51 39° S
Cosmos 1025 Rocket 3.6 01:31:51 10° NNW 01:35:49 38° W 01:36:08 38° WSW
Cosmos 2227 Rocket 2.5 01:33:34 34° S 01:35:55 58° ESE 01:41:29 10° NE
Resurs 1-4 Rocket 2.1 01:31:52 10° NNE 01:37:11 80° ESE 01:39:24 36° S
MOZ.5/SAFIR/RUBIN 5/SL-8 4.1 01:36:59 43° SW 01:38:00 50° W 01:42:39 10° NNW
Cosmos 1674 2.5 01:35:32 10° NNW 01:39:15 80° W 01:39:47 63° SSW
Cosmos 1733 3.9 01:42:54 33° SE 01:44:08 47° E 01:47:51 10° NNE
ATLAS 3B R/B 3.8 01:41:01 10° W 01:47:07 38° NNW 01:53:20 10° NE
Cosmos 1536 Rocket 4.2 01:43:54 10° NNW 01:47:54 37° W 01:48:26 35° WSW
Cosmos 2026 Rocket 4.0 01:42:15 10° NNW 01:48:15 61° W 01:51:08 31° SSW
USA 215 3.7 01:42:03 10° ENE 01:48:19 46° SE 01:51:29 28° SSW
Cosmos 2279 Rocket 4.1 01:44:46 26° S 01:48:22 74° E 01:54:34 10° NNE
COBE Rocket 3.9 01:47:33 23° SSE 01:50:28 75° ENE 01:55:07 10° N
Lacrosse 4 Rocket 3.5 01:49:19 13° W 01:51:53 21° NW 01:55:08 10° NNE
FALCON 9 DEB 3.5 01:49:22 10° WNW 01:52:51 67° NNE 01:56:19 10° E
Cosmos 2219 Rocket 3.9 01:49:34 10° WNW 01:52:54 16° W 01:52:54 16° W
Cosmos 1634 Rocket 4.0 01:50:26 31° SSW 01:53:33 69° WNW 01:59:47 10° N
Cosmos 2344 4.4 01:45:07 10° NW 01:54:29 63° WSW 02:07:29 10° SSE
Cosmos 2082 4.3 01:53:29 25° S 01:56:30 49° ESE 02:01:55 10° NE
SL-4 R/B 1.3 01:58:02 35° W 01:59:17 70° SSW 02:02:40 10° ESE
Cosmos 2112 Rocket 4.3 01:54:19 10° NNW 01:59:34 67° ENE 02:04:44 10° SSE
Meteor 1-24 Rocket 3.6 01:59:07 10° NNW 02:04:41 87° E 02:08:55 17° SSE
SL-16 R/B 2.1 01:59:57 10° NNW 02:05:42 82° WSW 02:11:22 10° SSE
CBERS-1 4.2 02:00:54 10° NNE 02:06:01 66° ESE 02:09:09 24° S
Meteor 2-5 Rocket 3.7 02:02:44 10° NNW 02:08:23 70° W 02:11:59 22° S
ARIANE 5 R/B 3.7 02:08:30 10° NNE 02:13:24 39° E 02:18:02 11° SSE
H-2A R/B 4.3 02:11:58 10° ESE 02:15:18 24° ENE 02:18:38 10° N
Cosmos 1898 Rocket 4.3 02:11:41 18° S 02:15:19 45° ESE 02:20:16 10° NE
NPP 3.8 02:10:04 10° N 02:15:24 63° WNW 02:18:23 26° SW
IDEFIX/ARIANE 42P 4.2 02:11:41 10° NE 02:16:10 29° E 02:20:39 10° SSE
CZ-2D R/B 2.5 02:11:03 10° N 02:16:24 55° WNW 02:19:24 25° SW
SL-16 R/B 3.1 02:13:43 26° SW 02:16:36 39° W 02:22:27 10° NNW
Cosmos 1680 Rocket 3.4 02:12:07 10° NNW 02:17:23 79° WSW 02:22:35 10° SSE
GEOS 3 Rocket 4.5 02:14:40 10° NE 02:19:48 46° NW 02:23:51 16° WSW
NOSS 3-1 (C) 4.3 02:17:24 17° S 02:21:03 37° ESE 02:26:46 10° NE
AQUA 4.0 02:17:12 10° N 02:21:55 62° WNW 02:24:26 27° SW
USA 267 3.2 02:15:37 10° ESE 02:22:11 89° SW 02:28:46 10° WNW
Cosmos 1544 Rocket 4.5 02:20:01 13° SSE 02:23:41 46° E 02:27:59 10° NNE
Cosmos 1607 4.0 02:18:01 10° NW 02:24:23 63° WSW 02:30:45 10° SSE
ADEOS II 2.1 02:19:24 10° NNE 02:24:43 83° ESE 02:28:24 20° SSW
Cosmos 990 Rocket 4.4 02:23:19 19° S 02:26:56 59° ESE 02:32:02 10° NNE
Cosmos 1766 3.7 02:26:32 30° SW 02:28:03 47° WNW 02:31:50 10° N
IRS-1D 3.5 02:23:31 10° NNE 02:28:34 80° WNW 02:31:54 22° SSW
Cosmos 2263 Rocket 4.0 02:25:06 10° SSE 02:29:31 25° ESE 02:33:57 10° NE
Meteor 1-22 Rocket 4.0 02:27:12 22° SSW 02:30:40 80° WNW 02:36:01 10° N
Cosmos 2297 Rocket 2.6 02:27:24 22° SW 02:30:54 54° NW 02:36:28 10° NNE
Cosmos 2219 3.8 02:27:45 21° WSW 02:31:16 47° NW 02:36:43 10° NNE
Okean 1-7 Rocket 3.5 02:26:53 10° NNW 02:31:19 82° W 02:35:04 14° S
IRS-1C 4.3 02:28:57 10° NNE 02:34:19 74° ESE 02:38:43 15° S
Cosmos 1626 2.6 02:33:52 10° NNW 02:37:23 41° W 02:38:56 26° SW
Cosmos 2266 Rocket 4.0 02:31:49 10° NNW 02:38:14 77° W 02:44:29 10° S
Cosmos 1655 Rocket 4.1 02:32:54 10° NNW 02:39:03 59° W 02:44:28 13° S
Meteor 1-28 Rocket 3.1 02:36:22 12° SSE 02:39:47 85° WSW 02:43:38 10° NNW
Okean 1 Rocket 4.1 02:38:14 21° WSW 02:40:10 30° WNW 02:44:03 10° N
Cosmos 2237 Rocket 3.5 02:36:34 10° WNW 02:40:25 19° W 02:41:37 18° WSW
CZ-4B R/B 3.6 02:37:09 10° N 02:41:50 54° WNW 02:44:51 21° SW
Cosmos 1470 2.8 02:41:43 18° S 02:44:33 86° E 02:48:33 10° N
Cosmos 1603 4.2 02:39:27 10° NNW 02:45:12 64° ENE 02:50:52 10° SE
SL-08 R/B 3.4 02:44:16 10° S 02:49:10 65° WSW 02:54:08 10° NNW
Cosmos 2098 Rocket 3.6 02:48:42 10° NNW 02:53:16 57° W 02:58:59 10° S
USA 229 DEB 4.1 02:48:34 14° SSW 02:54:04 56° ESE 03:00:46 10° NE
USA 229 4.1 02:48:40 14° SSW 02:54:09 55° ESE 03:00:49 10° NE
SL-14 R/B 4.4 02:58:30 10° NNW 03:01:49 26° W 03:03:47 18° SW
ERBS 3.6 03:00:00 10° W 03:03:33 17° SSW 03:04:58 10° S
Meteor 2-14 Rocket 4.5 02:56:58 10° N 03:03:04 88° ENE 03:09:09 10° S
NOSS 3-1 (A) 4.1 03:00:07 10° SSW 03:05:15 46° ESE 03:11:17 10° NE
SJ 16-02 2.0 03:02:10 17° SW 03:05:16 43° WNW 03:09:31 10° N
CSL-04 DEB 4.2 03:06:43 10° SSE 03:10:37 84° WSW 03:14:35 10° NNW
Cosmos 1809 Rocket 4.5 03:06:14 10° NNW 03:12:18 67° W 03:18:20 10° S
MSX 4.4 03:06:41 10° NNE 03:12:24 59° ESE 03:18:05 10° S
Cosmos 1943 3.3 03:06:49 10° NNW 03:12:29 83° ENE 03:18:07 10° SSE
IRS-P3 4.4 03:07:54 10° N 03:13:07 54° WNW 03:17:57 12° SW
Cosmos 1626 Rocket 3.5 03:09:21 10° NNW 03:13:39 65° W 03:17:55 10° S
Cosmos 1455 Rocket 3.7 03:11:32 14° SW 03:14:58 42° WNW 03:19:13 10° N
Resurs 1-4 Rocket 3.8 03:12:42 10° N 03:16:25 20° NW 03:20:09 10° W
Cosmos 1758 3.6 03:13:24 13° SSW 03:16:53 52° WNW 03:20:51 10° N
Spot 4 Rocket 4.1 03:11:52 10° NNE 03:17:05 89° W 03:22:14 10° SSW
Meteor 1-21 Rocket 4.2 03:11:49 10° NNW 03:17:24 78° W 03:22:55 10° S
Cosmos 2227 Rocket 3.4 03:15:24 10° WSW 03:20:19 32° NW 03:25:23 10° NNE
SeaSat 1 3.4 03:16:37 10° NE 03:21:22 45° ESE 03:26:05 10° S
CZ-2C R/B 2.9 03:21:18 10° NNE 03:25:14 79° ESE 03:29:03 10° S
Landsat 5 3.3 03:21:28 10° SSE 03:25:22 79° WSW 03:29:26 10° NNW
CZ-2D R/B 3.5 03:22:46 10° N 03:26:50 64° WNW 03:30:47 10° SSW
Cosmos 1461 3.2 03:23:26 12° SW 03:27:25 65° NW 03:32:01 10° NE
Cosmos 1048 Rocket 4.4 03:24:06 10° NNW 03:29:14 67° ENE 03:34:22 10° SSE
FALCON 9 DEB 3.7 03:26:32 10° WNW 03:29:46 36° SW 03:32:58 10° SSE
Cosmos 2227 4.4 03:25:31 10° SSW 03:31:15 76° ESE 03:37:03 10° NNE
USA 215 3.4 03:25:04 10° ENE 03:31:37 75° NNW 03:38:08 10° WSW
Cosmos 1758 Rocket 3.7 03:27:17 10° N 03:31:37 77° ENE 03:35:57 10° SSE
ATLAS CENTAUR R/B 4.0 03:30:42 10° SSE 03:33:03 15° ESE 03:35:19 10° E
Cosmos 1340 Rocket 3.6 03:29:56 11° SW 03:33:32 36° WNW 03:37:14 10° N
Cosmos 724 4.5 03:29:29 10° NW 03:35:18 53° WSW 03:41:12 10° SSE
ERS-2 2.1 03:33:01 10° S 03:36:38 64° WSW 03:40:17 10° NNW
Cosmos 2228 4.1 03:33:39 10° SSE 03:37:49 47° E 03:42:04 10° NNE
SL-4 R/B 3.1 03:36:02 10° W 03:38:21 17° SW 03:40:41 10° S
Cosmos 1953 2.5 03:35:52 10° SSW 03:39:49 57° WNW 03:43:49 10° N
Cosmos 1726 2.6 03:39:12 10° SSW 03:42:45 44° WNW 03:46:18 10° N
Cosmos 1908 3.4 03:41:01 10° S 03:44:55 80° E 03:48:52 10° NNE
Meteor 1-16 Rocket 4.2 03:40:44 10° SSW 03:46:06 86° WNW 03:51:40 10° NNE
Cosmos 2285 Rocket 4.4 03:41:38 10° S 03:47:52 67° ESE 03:54:08 10° NNE
SL-16 R/B 3.8 03:45:50 10° WNW 03:48:53 15° W 03:51:57 10° SW
H-2A R/B 2.4 03:47:15 10° S 03:51:07 39° W 03:55:00 10° NNW
